Regional Weather Roundup
Issued by NWS

Home | Current Version | Previous Version | Text Only | Print | Product List | Glossary On
Versions: 1 2 3 4 5 6 7 8 9 10 11 12 13 14 15 16 17 18 19 20 21 22 23 24 25 26 27 28 29 30 31 32 33 34 35 36 37 38 39 40 41 42 43 44 45 46 47 48 49 50
000
ASUS45 KABQ 170910
RWRNM
NEW MEXICO REGIONAL WEATHER ROUNDUP
NATIONAL WEATHER SERVICE ALBUQUERQUE NM
200 AM MST WED JAN 17 2018

NOTE: "FAIR" MEANS FEW OR NO CLOUDS BELOW 12,000 FEET AGL WITH NO
       SIGNIFICANT WEATHER OR OBSTRUCTIONS TO VISION.

      THIS PRODUCT IS RELEASED AS TWO VERSIONS.  ONE VERSION NEAR
      THE TOP OF THE HOUR CONTAINING PRELIMINARY DATA FROM ALBUQUERQUE
      AND OTHER STATIONS.  A FINAL VERSION WITH ADDITIONAL DATA IS
      ISSUED ABOUT 10 MINUTES AFTER THE HOUR.

NMZ501-503-504-510>518-171000-
NORTHWEST PLATEAU/NORTHCENTRAL MOUNTAINS

CITY           SKY/WX    TMP DP  RH WIND       PRES   REMARKS
FARMINGTON     FAIR      17  13  84 NE6       30.35S WCI   9
LOS ALAMOS     FAIR      22  15  74 N5        30.34F WCI  15
SANTA FE       FAIR      14  10  84 N10       30.35F WCI   1
TAOS           FAIR       9   6  88 CALM      30.39S
ANGEL FIRE     FAIR      -1  -5  80 CALM      30.34R

$$
NMZ402-403-502-505>509-171000-
WESTCENTRAL MOUNTAINS/SOUTHWEST MOUNTAINS

CITY           SKY/WX    TMP DP  RH WIND       PRES   REMARKS
GALLUP         FAIR      19  13  77 NE9       30.33F WCI   8
GRANTS         FAIR      11   6  82 W5        30.38S WCI   2
SILVER CITY    FAIR      14   6  70 N5        30.39R WCI   7

$$
NMZ407-409-411-412-171000-
SOUTHERN DESERTS

CITY           SKY/WX    TMP DP  RH WIND       PRES   REMARKS
DEMING         FAIR      20   4  50 NE8       30.42F WCI  10
LAS CRUCES     FAIR      25   7  46 SE3       30.45F
HOLLOMAN AFB   FAIR      17  -4  39 NW5       30.50R WCI  10
ALAMOGORDO     FAIR      19   0  42 N8        30.47R WCI   9
T OR C         FAIR      27  10  49 SW3       30.41S

$$
NMZ519>523-171000-
CENTRAL VALLEYS/CENTRAL HIGHLANDS

CITY           SKY/WX    TMP DP  RH WIND       PRES   REMARKS
ALBUQUERQUE    FAIR      22  15  75 NE7       30.40R WCI  13
MORIARTY ARPT  FAIR       6  -1  72 CALM      30.38S
CLINES CORNERS FAIR      13   7  77 W13       30.32F WCI  -2
BELEN          FAIR      17  10  75 CALM      30.41S
SOCORRO        FAIR      20   8  57 S5        30.43R WCI  14

$$
NMZ524>526-539-540-171000-
SOUTHCENTRAL MOUNTAINS

CITY           SKY/WX    TMP DP  RH WIND       PRES   REMARKS
RUIDOSO        NOT AVBL

$$
NMZ527>531-171000-
NORTHEAST HIGHLANDS/NORTHEAST PLAINS

CITY           SKY/WX    TMP DP  RH WIND       PRES   REMARKS
LAS VEGAS      FAIR      15   6  67 S3        30.28F
RATON          FAIR       9   5  84 NE6       30.29F WCI  -1
CLAYTON        FAIR      16  11  80 SW14      30.29F WCI   2

$$
NMZ532>537-171000-
EASTCENTRAL PLAINS

CITY           SKY/WX    TMP DP  RH WIND       PRES   REMARKS
SANTA ROSA     FAIR      15   1  54 S6        30.39F WCI   7
TUCUMCARI      FAIR      17   5  59 SW8       30.40F WCI   7
CANNON AFB     FAIR      13   4  66 W6        30.46F WCI   4
CLOVIS AIRPORT FAIR       7   1  76 W8        30.46F WCI  -6

$$
NMZ028-029-538-171000-
SOUTHEAST PLAINS

CITY           SKY/WX    TMP DP  RH WIND       PRES   REMARKS
ROSWELL        FAIR      13  -2  51 SE3       30.48F
ARTESIA        FAIR      14  -4  44 S6        30.51F WCI   5
CARLSBAD       FAIR      17   1  49 S6        30.51F WCI   9
HOBBS          FAIR      14  -2  48 CALM      30.52S


$$



USA.gov is the U.S. government's official web portal to all federal, state and local government web resources and services.